Kiripotib Landing Site

Jump to: basic info | weather | comments

Related pages: nearby airports | nearby navaids

Basic information (top)

Location: lon -23.328300, lat 17.946400, elev 4,475 ft / 1,364 m msl
Status: small_airport

Weather (top)

Current conditions for Hosea Kutako International Airport 57nm (106km) NNW (rec'd 2014/11/21 19:00Z):

FYWH 211900Z AUTO 28010KT //// // ////// 14/M09 Q1019

Airport forecast for Hosea Kutako International Airport 57nm (106km) NNW (rec'd 2014/11/21 06:00Z):

TAF FYWH 210400Z 2106/2212 26005KT CAVOK 
      BECMG 2110/2112 32010KT 9999 SCT040 
      BECMG 2117/2119 24005KT CAVOK 

Latest comments (top)

More details: Once can also land in the nearby salt ... [read]

Kiripotib Landing Strip Details: GPS location: S 23° 19' 50'' E 17° ... [read]

More... (top)

See also NOTAMs and nearby airports and navaids, or visit the Kiripotib Landing Site page at the main OurAirports website..